Weather History for Tullahoma, TN

Change the Weather History Date:

Thursday, April 18, 2013

  Actual Average Record
Temperature  
Mean Temperature 71 °F -  
Max Temperature 78 °F 73 °F 78 °F (2013)
Min Temperature 64 °F 48 °F 50 °F (2014)
Cooling Degree Days 6    
Growing Degree Days 21 (Base 50)    
Moisture  
Dew Point 57 °F    
Average Humidity 62    
Maximum Humidity 88    
Minimum Humidity 42    
Precipitation  
Precipitation 0.00 in - - ()
Sea Level Pressure  
Sea Level Pressure 29.93 in    
Wind  
Wind Speed 11 mph (SSE)    
Max Wind Speed 21 mph    
Max Gust Speed 31 mph    
Visibility 10 miles    
Events      
Averages and records for this station are not official NWS values.
T = Trace of Precipitation, MM = Missing Value Source: NWS Daily Summary

Daily Weather History Graph

Daily Weather History Graph

Search for Another Location

Airport:

Trip Planner

Search our weather history database for the weather conditions in past years. The results will help you decide how hot, cold, wet, or windy it might be!

Date:

Astronomy

Apr. 18, 2013 Rise Set
Actual Time 6:08 AM CDT 7:20 PM CDT
Civil Twilight 5:42 AM CDT 7:47 PM CDT
Nautical Twilight 5:10 AM CDT 8:18 PM CDT
Astronomical Twilight 4:38 AM CDT 8:51 PM CDT
Moon 12:21 PM CDT (4/18) 1:32 AM CDT (4/18)
Length of Visible Light 14h 04m
Length of Day
13h 12m
First Quarter, 52% of the Moon is Illuminated
Apr 18
First Quarter
Apr 25
Full
May 2
Last Quarter
May 9
New
May 17
First Quarter

Hourly Weather History & Observations

Time (CDT) Temp. Dew Point Humidity Pressure Visibility Wind Dir Wind Speed Gust Speed Precip Events Conditions
12:15 AM 66.2 °F 60.8 °F 83% 30.04 in 10.0 mi SSE 4.6 mph - N/A   Partly Cloudy
12:35 AM 66.2 °F 60.8 °F 83% 30.04 in 10.0 mi SSE 6.9 mph - N/A   Clear
12:55 AM 66.2 °F 59.0 °F 78% 30.04 in 10.0 mi SSE 5.8 mph - N/A   Clear
1:15 AM 66.2 °F 59.0 °F 78% 30.03 in 10.0 mi SSE 5.8 mph - N/A   Clear
1:35 AM 66.2 °F 59.0 °F 78% 30.02 in 10.0 mi SSE 8.1 mph - N/A   Clear
1:55 AM 66.2 °F 59.0 °F 78% 30.00 in 10.0 mi SSE 11.5 mph - N/A   Clear
2:15 AM 66.2 °F 60.8 °F 83% 30.00 in 10.0 mi SSE 10.4 mph - N/A   Clear
2:35 AM 66.2 °F 60.8 °F 83% 29.99 in 10.0 mi SSE 9.2 mph - N/A   Clear
2:55 AM 66.2 °F 60.8 °F 83% 29.99 in 10.0 mi SSE 6.9 mph - N/A   Clear
3:15 AM 66.2 °F 60.8 °F 83% 29.98 in 10.0 mi SSE 6.9 mph - N/A   Clear
3:35 AM 66.2 °F 60.8 °F 83% 29.98 in 10.0 mi SSE 9.2 mph - N/A   Clear
3:55 AM 66.2 °F 60.8 °F 83% 29.98 in 10.0 mi SSE 6.9 mph - N/A   Clear
4:15 AM 66.2 °F 60.8 °F 83% 29.98 in 10.0 mi South 9.2 mph - N/A   Clear
4:35 AM 66.2 °F 60.8 °F 83% 29.98 in 10.0 mi SSE 11.5 mph - N/A   Clear
4:55 AM 66.2 °F 60.8 °F 83% 29.98 in 10.0 mi SSE 10.4 mph - N/A   Clear
5:15 AM 66.2 °F 60.8 °F 83% 29.97 in 10.0 mi SSE 9.2 mph - N/A   Clear
5:35 AM 66.2 °F 60.8 °F 83% 29.97 in 10.0 mi SSE 8.1 mph - N/A   Clear
5:55 AM 64.4 °F 60.8 °F 88% 29.98 in 10.0 mi SSE 8.1 mph - N/A   Clear
6:15 AM 64.4 °F 60.8 °F 88% 29.98 in 10.0 mi SSE 8.1 mph - N/A   Clear
6:35 AM 64.4 °F 59.0 °F 83% 29.99 in 10.0 mi SSE 8.1 mph - N/A   Clear
6:55 AM 66.2 °F 59.0 °F 78% 30.00 in 10.0 mi SSE 8.1 mph - N/A   Clear
7:15 AM 66.2 °F 57.2 °F 73% 30.01 in 10.0 mi SSE 10.4 mph - N/A   Clear
7:35 AM 66.2 °F 57.2 °F 73% 30.02 in 10.0 mi SSE 13.8 mph - N/A   Clear
7:55 AM 66.2 °F 57.2 °F 73% 30.02 in 10.0 mi SSE 11.5 mph - N/A   Clear
8:15 AM 68.0 °F 59.0 °F 73% 30.02 in 10.0 mi South 11.5 mph - N/A   Clear
8:35 AM 69.8 °F 59.0 °F 68% 30.02 in 10.0 mi South 15.0 mph - N/A   Clear
8:55 AM 69.8 °F 59.0 °F 68% 30.02 in 10.0 mi South 11.5 mph - N/A   Clear
9:15 AM 69.8 °F 57.2 °F 64% 30.02 in 10.0 mi South 11.5 mph - N/A   Clear
9:35 AM 71.6 °F 57.2 °F 60% 30.02 in 10.0 mi South 15.0 mph - N/A   Clear
9:55 AM 71.6 °F 57.2 °F 60% 30.02 in 10.0 mi South 13.8 mph - N/A   Clear
10:15 AM 73.4 °F 57.2 °F 57% 30.01 in 10.0 mi South 12.7 mph - N/A   Clear
10:35 AM 73.4 °F 57.2 °F 57% 30.01 in 10.0 mi South 13.8 mph - N/A   Clear
10:55 AM 75.2 °F 55.4 °F 50% 29.99 in 10.0 mi South 15.0 mph - N/A   Clear
11:15 AM 75.2 °F 55.4 °F 50% 29.98 in 10.0 mi South 16.1 mph - N/A   Clear
11:35 AM 75.2 °F 55.4 °F 50% 29.98 in 10.0 mi South 16.1 mph - N/A   Clear
11:55 AM 77.0 °F 55.4 °F 47% 29.96 in 10.0 mi South 13.8 mph - N/A   Clear
12:15 PM 77.0 °F 55.4 °F 47% 29.95 in 10.0 mi SSE 13.8 mph - N/A   Partly Cloudy
12:35 PM 75.2 °F 55.4 °F 50% 29.94 in 10.0 mi SSE 15.0 mph - N/A   Partly Cloudy
12:55 PM 78.8 °F 55.4 °F 44% 29.94 in 10.0 mi SSE 13.8 mph - N/A   Clear
1:15 PM 78.8 °F 55.4 °F 44% 29.94 in 10.0 mi South 18.4 mph - N/A   Partly Cloudy
1:35 PM 78.8 °F 55.4 °F 44% 29.94 in 10.0 mi South 19.6 mph - N/A   Partly Cloudy
1:55 PM 78.8 °F 55.4 °F 44% 29.94 in 10.0 mi South 16.1 mph - N/A   Clear
2:15 PM 78.8 °F 55.4 °F 44% 29.93 in 10.0 mi South 18.4 mph - N/A   Partly Cloudy
2:35 PM 78.8 °F 53.6 °F 42% 29.92 in 10.0 mi South 20.7 mph - N/A   Clear
2:55 PM 78.8 °F 53.6 °F 42% 29.91 in 10.0 mi South 12.7 mph - N/A   Clear
3:35 PM 78.8 °F 53.6 °F 42% 29.89 in 10.0 mi South 17.3 mph - N/A   Scattered Clouds
3:55 PM 78.8 °F 53.6 °F 42% 29.88 in 10.0 mi SSE 15.0 mph - N/A   Scattered Clouds
4:15 PM 78.8 °F 55.4 °F 44% 29.87 in 10.0 mi South 13.8 mph - N/A   Partly Cloudy
4:35 PM 78.8 °F 53.6 °F 42% 29.87 in 10.0 mi SSE 18.4 mph - N/A   Partly Cloudy
4:55 PM 78.8 °F 53.6 °F 42% 29.86 in 10.0 mi South 16.1 mph - N/A   Clear
5:15 PM 77.0 °F 53.6 °F 44% 29.86 in 10.0 mi South 10.4 mph - N/A   Clear
5:35 PM 78.8 °F 53.6 °F 42% 29.85 in 10.0 mi South 13.8 mph - N/A   Clear
5:55 PM 77.0 °F 55.4 °F 47% 29.85 in 10.0 mi South 16.1 mph - N/A   Scattered Clouds
6:15 PM 75.2 °F 55.4 °F 50% 29.84 in 10.0 mi South 17.3 mph 24.2 mph N/A   Mostly Cloudy
6:35 PM 75.2 °F 55.4 °F 50% 29.84 in 10.0 mi South 11.5 mph - N/A   Mostly Cloudy
6:55 PM 75.2 °F 55.4 °F 50% 29.84 in 10.0 mi South 12.7 mph - N/A   Partly Cloudy
7:15 PM 75.2 °F 55.4 °F 50% 29.83 in 10.0 mi South 11.5 mph - N/A   Partly Cloudy
7:35 PM 75.2 °F 55.4 °F 50% 29.83 in 10.0 mi South 11.5 mph - N/A   Partly Cloudy
7:55 PM 75.2 °F 53.6 °F 47% 29.82 in 10.0 mi South 15.0 mph - N/A   Clear
8:15 PM 75.2 °F 53.6 °F 47% 29.81 in 10.0 mi SSE 16.1 mph - N/A   Clear
8:35 PM 73.4 °F 55.4 °F 53% 29.79 in 10.0 mi SSE 17.3 mph - N/A   Clear
9:55 PM 73.4 °F 55.4 °F 53% 29.76 in 10.0 mi South 13.8 mph - N/A   Clear
10:35 PM 73.4 °F 57.2 °F 57% 29.74 in 10.0 mi SSE 17.3 mph - N/A   Clear
10:55 PM 73.4 °F 57.2 °F 57% 29.73 in 10.0 mi South 17.3 mph - N/A   Partly Cloudy
11:15 PM 73.4 °F 59.0 °F 61% 29.71 in 10.0 mi SSE 19.6 mph - N/A   Clear
11:35 PM 73.4 °F 59.0 °F 61% 29.70 in 10.0 mi South 15.0 mph - N/A   Scattered Clouds
11:55 PM 73.4 °F 60.8 °F 65% 29.69 in 10.0 mi South 19.6 mph 31.1 mph N/A   Scattered Clouds